Regional Weather Roundup
Issued by NWS

Home | Current Version | Previous Version | Text Only | Print | Product List | Glossary On
Versions: 1 2 3 4 5 6 7 8 9 10 11 12 13 14 15 16 17 18 19 20 21 22 23 24 25 26 27 28 29 30 31 32 33 34 35 36 37 38 39 40 41 42 43 44 45 46 47 48 49 50
089
ASMX46 KSGX 181811
RWRMX
MEXICAN WEATHER ROUNDUP
NATIONAL WEATHER SERVICE SAN DIEGO CA
1000 AM PST SAT NOV 18 2017

BAJA CALIFORNIA

CITY           SKY/WX    TMP DP  RH WIND       PRES   REMARKS
ENSENADA NW      N/A     65  32  28 CALM      30.05S
LA PAZ         SUNNY     90  28  11 N7        29.97F VSB 1
LORETO         SUNNY     84  70  61 NE13      29.96F
MEXICALI       SUNNY     72  18  13 NW14      30.19R
S.J. DEL CABO  SUNNY     91  34  13 N7        29.97F
TIJUANA        SUNNY     68  54  60 CALM      30.17S

NORTHWESTERN MEXICO

CITY           SKY/WX    TMP DP  RH WIND       PRES   REMARKS
CHIHUAHUA      SUNNY     72  30  21 N12       30.23S
CULIACAN       MOSUNNY   82  57  42 CALM      29.94F
GUAYMAS        MOSUNNY   86  48  26 CALM      29.92F
HERMOSILLO       N/A    N/A N/A N/A MISG        N/A
JUAREZ         PTSUNNY   63  32  31 N14       30.23S
LOS MOCHIS     SUNNY     82  50  32 NW5       29.96F
OBREGON        MOSUNNY   88  32  13 NW7       29.94F

NORTHEASTERN MEXICO

CITY           SKY/WX    TMP DP  RH WIND       PRES   REMARKS
MATAMOROS      PTSUNNY   84  72  65 S20       29.88F
MONCLOVA       SUNNY     91  57  31 CALM      29.94F
MONTERREY        N/A    N/A N/A N/A MISG        N/A
NUEVO LAREDO   MOSUNNY   75  66  73 CALM      29.93S
PIEDRAS NEGRAS SUNNY     77  66  69 N9        29.99R
REYNOSA        SUNNY     81  63  54 S9        29.86F
SALTILLO       SUNNY     82  61  47 CALM      30.18F
TORREON        SUNNY     82  36  18 NW7       30.12F
VICTORIA       SUNNY     82  63  51 MISG      29.87F

WESTERN MEXICO

CITY           SKY/WX    TMP DP  RH WIND       PRES   REMARKS
AGUASCALIENTES SUNNY     73  27  17 NW5       30.26F
COLIMA         SUNNY     82  70  65 NE6       30.02F
DURANGO        SUNNY     72  34  25 NE6       30.28F
GUADALAJARA    SUNNY     73  46  38 N6        30.19F
MANZANILLO       N/A    N/A N/A N/A MISG        N/A
MAZATLAN       SUNNY     88  68  51 SW6       29.92F
PTO. VALLARTA  SUNNY     88  68  51 CALM      29.90F
TEPIC          SUNNY     81  63  54 CALM      30.07F
URUAPAN          N/A     73  57  56 S7        30.16F
ZACATECAS        N/A    N/A N/A N/A MISG        N/A

CENTRAL MEXICO

CITY           SKY/WX    TMP DP  RH WIND       PRES   REMARKS
CUERNAVACA     SUNNY     79  52  38 SW7       30.11
LEON             N/A    N/A N/A N/A MISG        N/A
MEXICO CITY    SUNNY     68  27  21 N2        30.32F
MORELIA        SUNNY     73  43  33 CALM      30.24F
PUEBLA         SUNNY     73  30  20 NE6       30.29F
QUERETARO      SUNNY     72  32  23 NW5       30.29F
S. LUIS POTOSI SUNNY     75   7   7 CALM      30.22F
TAMPICO        MOSUNNY   82  72  69 MISG      29.89F
TOLUCA         SUNNY     68  21  17 W6        30.36F
VERACRUZ       MOSUNNY   82  72  69 SE5       29.91F

SOUTHERN MEXICO

CITY           SKY/WX    TMP DP  RH WIND       PRES   REMARKS
ACAPULCO       SUNNY     86  77  74 SW8       29.87F HX  97
B. DE HUATULCO SUNNY    N/A N/A N/A CALM      29.91F
MINATITLAN     MOSUNNY   82  72  69 CALM      29.90F
OAXACA         MOSUNNY   77  46  33 CALM      30.15F
PTO. ESCONDIDO SUNNY     81  73  78 S10       29.98F
TAPACHULA      MOSUNNY   84  73  70 SW5       29.86F
TUX. GUTIERREZ MOSUNNY   81  64  57 E5        29.95F
VILLAHERMOSA   MOSUNNY   82  68  61 E6        29.93F

YUCATAN PENINSULA

CITY           SKY/WX    TMP DP  RH WIND       PRES   REMARKS
CAMPECHE       MOSUNNY   82  66  57 E6        29.92F
CANCUN         PTSUNNY   82  68  61 NE5       29.95F
CHETUMAL       MOSUNNY   84  66  54 CALM      29.94F
C. DEL CARMEN  SUNNY    N/A N/A N/A E12       29.93F
COZUMEL        PTSUNNY   79  70  73 E9        29.94F
MERIDA         MOSUNNY   86  61  42 E3        29.94F

$$





USA.gov is the U.S. government's official web portal to all federal, state and local government web resources and services.